SWR730M LSZH-EDXW

Flight info

Callsign SWR730M
Flight time N/A
Altitude 36000
Route DEGES Z1 ETAGO DCT HAREM DCT ELSOB DCT BADOS DCT OLDIP
Aircraft A320/M-SDE3FGHIRWY/LB1

Departure

Time 2026-04-30 14:11
Airport Zürich Airport (LSZH)

Arrival

Time N/A
Airport Westerland Sylt Airport (EDXW)
Time Latitude Longitude Altitude Speed Heading
2026-04-30 13:47 47.45432 8.55691 1407 ft 0 kts 186°
2026-04-30 13:57 47.45441 8.55693 1407 ft 3 kts 186°
2026-04-30 13:57 47.45462 8.55696 1408 ft 3 kts 186°
2026-04-30 13:58 47.45482 8.55699 1414 ft 3 kts 186°
2026-04-30 13:58 47.45519 8.55705 1415 ft 7 kts 186°
2026-04-30 14:01 47.45511 8.55699 1411 ft 3 kts 212°
2026-04-30 14:02 47.45510 8.55680 1411 ft 2 kts 281°
2026-04-30 14:02 47.45517 8.55624 1411 ft 7 kts 277°
2026-04-30 14:02 47.45522 8.55553 1406 ft 7 kts 276°
2026-04-30 14:02 47.45523 8.55472 1406 ft 9 kts 257°
2026-04-30 14:03 47.45474 8.55417 1402 ft 9 kts 205°
2026-04-30 14:03 47.45413 8.55375 1407 ft 10 kts 206°
2026-04-30 14:03 47.45371 8.55325 1403 ft 5 kts 243°
2026-04-30 14:03 47.45372 8.55300 1400 ft 1 kts 292°
2026-04-30 14:04 47.45375 8.55296 1405 ft 2 kts 300°
2026-04-30 14:04 47.45388 8.55260 1403 ft 10 kts 296°
2026-04-30 14:04 47.45411 8.55164 1397 ft 10 kts 288°
2026-04-30 14:04 47.45433 8.55068 1404 ft 10 kts 289°
2026-04-30 14:05 47.45457 8.54966 1400 ft 11 kts 289°
2026-04-30 14:05 47.45488 8.54842 1392 ft 15 kts 289°
2026-04-30 14:05 47.45520 8.54698 1400 ft 14 kts 288°
2026-04-30 14:05 47.45549 8.54564 1389 ft 14 kts 288°
2026-04-30 14:06 47.45579 8.54431 1385 ft 13 kts 288°
2026-04-30 14:06 47.45635 8.54173 1384 ft 12 kts 288°
2026-04-30 14:07 47.45682 8.53961 1386 ft 9 kts 288°
2026-04-30 14:07 47.45698 8.53888 1387 ft 6 kts 287°
2026-04-30 14:07 47.45717 8.53810 1398 ft 9 kts 295°
2026-04-30 14:08 47.45802 8.53748 1396 ft 9 kts
2026-04-30 14:08 47.45862 8.53758 1399 ft 8 kts
2026-04-30 14:08 47.45888 8.53836 1401 ft 0 kts 96°
2026-04-30 14:09 47.45888 8.53837 1398 ft 0 kts 96°
2026-04-30 14:10 47.45888 8.53844 1398 ft 8 kts 96°
2026-04-30 14:10 47.45853 8.54339 1392 ft 87 kts 96°
2026-04-30 14:10 47.45767 8.55555 1403 ft 146 kts 96°
2026-04-30 14:10 47.45640 8.57188 1771 ft 166 kts 93°
2026-04-30 14:11 47.45504 8.58907 2569 ft 169 kts 93°
2026-04-30 14:11 47.45379 8.60641 3172 ft 173 kts 92°
2026-04-30 14:11 47.45255 8.62419 3757 ft 174 kts 92°
2026-04-30 14:11 47.45222 8.64200 4419 ft 172 kts 83°
2026-04-30 14:12 47.45380 8.65979 4928 ft 184 kts 81°
2026-04-30 14:12 47.45598 8.68007 4986 ft 215 kts 81°
2026-04-30 14:12 47.45848 8.70293 5086 ft 228 kts 81°
2026-04-30 14:12 47.46102 8.72672 5589 ft 243 kts 81°
2026-04-30 14:13 47.46369 8.75229 6161 ft 260 kts 81°
2026-04-30 14:13 47.46610 8.77933 6895 ft 270 kts 85°
2026-04-30 14:13 47.46748 8.80730 7723 ft 275 kts 88°
2026-04-30 14:13 47.46597 8.83585 8619 ft 277 kts 103°
2026-04-30 14:14 47.46142 8.86372 9522 ft 280 kts 103°
2026-04-30 14:14 47.45704 8.89200 10348 ft 284 kts 102°
2026-04-30 14:14 47.45268 8.92128 10870 ft 300 kts 102°
2026-04-30 14:14 47.44822 8.95233 11311 ft 317 kts 101°
2026-04-30 14:15 47.44364 8.98499 11748 ft 331 kts 100°
2026-04-30 14:15 47.44246 9.01897 12471 ft 333 kts 81°
2026-04-30 14:15 47.44928 9.05146 13274 ft 333 kts 61°
2026-04-30 14:15 47.46351 9.07829 14061 ft 335 kts 41°
2026-04-30 14:16 47.48362 9.09601 14719 ft 340 kts 22°
2026-04-30 14:16 47.50599 9.10792 15354 ft 344 kts 21°
2026-04-30 14:16 47.52871 9.11980 15965 ft 348 kts 21°
2026-04-30 14:16 47.55150 9.13172 16426 ft 349 kts 21°
2026-04-30 14:17 47.57455 9.14386 17044 ft 353 kts 21°
2026-04-30 14:17 47.59774 9.15614 17691 ft 356 kts 21°
2026-04-30 14:17 47.62112 9.16857 18340 ft 358 kts 21°
2026-04-30 14:17 47.64471 9.18114 18902 ft 362 kts 21°
2026-04-30 14:18 47.66495 9.19190 19390 ft 364 kts 21°
2026-04-30 14:18 47.67313 9.19625 19577 ft 364 kts 21°
2026-04-30 14:18 47.72118 9.22180 20705 ft 369 kts 21°
2026-04-30 14:19 47.76986 9.24774 21821 ft 374 kts 21°
2026-04-30 14:19 47.79444 9.26089 22359 ft 377 kts 21°
2026-04-30 14:19 47.80611 9.26715 22611 ft 378 kts 21°
2026-04-30 14:20 47.83097 9.28049 23153 ft 381 kts 21°
2026-04-30 14:20 47.85629 9.29412 23667 ft 383 kts 21°
2026-04-30 14:20 47.90680 9.32130 24520 ft 388 kts 21°
2026-04-30 14:21 47.93225 9.33502 24937 ft 390 kts 21°
2026-04-30 14:21 47.95788 9.34886 25339 ft 392 kts 21°
2026-04-30 14:21 48.00947 9.37675 26120 ft 396 kts 21°
2026-04-30 14:22 48.03544 9.39078 26517 ft 398 kts 21°
2026-04-30 14:22 48.08775 9.41907 27273 ft 401 kts 22°
2026-04-30 14:22 48.11401 9.43329 27645 ft 403 kts 22°
2026-04-30 14:23 48.16772 9.45837 28381 ft 409 kts 12°
2026-04-30 14:23 48.22516 9.46203 29032 ft 417 kts
2026-04-30 14:24 48.28339 9.46200 29644 ft 420 kts
2026-04-30 14:24 48.31271 9.46205 29923 ft 422 kts
2026-04-30 14:25 48.37174 9.46213 30480 ft 426 kts
2026-04-30 14:25 48.43118 9.46211 30950 ft 428 kts